[[{"header":{"parameterUnit":"m.s-1","parameterCategory":1,"la1":30.2991,"la2":30.254,"lo1":-89.0895,"lo2":-89.0444,"dy":0.0017,"dx":0.0017,"nx":28,"ny":28,"refTime":"2024-08-09T09:00:00:Z","depth":0,"parameterNumber":2,"parameterNumberName":"U-component_of_WINDS"},"data":[0,0,0,0,0,0,0,0,0,0,0,0,0,0,0,0,0,0,0,0,0,0,0,0,0,0,0,0,0,0,0,0,0,0,0,0,0,0,0,0,0,0,0,0,0,0,0,0,0,0,0,0,0,0,0,0,0,0,-1.6809,-1.6809,0,-1.6769,-1.6768,-1.6768,-1.673,-1.673,-1.6729,-1.6729,-1.6686,-1.6685,-1.6684,0,0,0,0,0,0,0,0,0,0,0,0,0,-1.6853,-1.6853,-1.6809,-1.6809,-1.6808,-1.6769,-1.6768,-1.6768,-1.673,-1.673,-1.6729,-1.6729,-1.6686,-1.6685,-1.6684,0,0,0,0,0,0,0,0,0,0,0,0,0,-1.6826,-1.6852,-1.681,-1.6785,-1.6782,-1.6769,-1.6768,-1.6768,-1.673,-1.673,-1.6729,-1.6728,-1.6686,-1.6685,-1.6684,-1.6691,0,0,-1.6681,-1.668,0,0,0,0,0,0,0,0,-1.6827,-1.6824,-1.6789,-1.6787,-1.6784,-1.6754,-1.6768,-1.6742,-1.6731,-1.675,-1.6729,-1.6728,-1.6709,-1.6706,-1.67,-1.6689,-1.6688,-1.6681,-1.668,-1.668,-1.6679,0,0,0,0,0,0,0,-1.6829,-1.6826,-1.6793,-1.6789,-1.6785,-1.6776,-1.6771,-1.6763,-1.6734,-1.6748,-1.6745,-1.6741,-1.6707,-1.6701,-1.6698,-1.6687,-1.6681,-1.668,-1.6679,-1.6679,-1.6681,-1.6682,0,0,0,0,0,0,-1.6835,-1.6827,-1.6795,-1.6792,-1.6804,-1.6775,-1.677,-1.6764,-1.6734,-1.6729,-1.6742,-1.674,-1.6703,-1.67,-1.6697,-1.6704,-1.668,-1.6679,-1.6678,-1.6681,-1.6682,-1.6682,0,0,0,0,0,0,-1.6836,-1.6832,-1.6796,-1.6809,-1.6804,-1.6775,-1.6769,-1.6764,-1.6757,-1.6729,-1.6723,-1.6741,-1.6702,-1.6698,-1.6693,-1.6702,-1.6678,-1.6677,-1.668,-1.6681,-1.6682,-1.6719,0,0,0,0,0,0,-1.6838,-1.6833,-1.6836,-1.6809,-1.6803,-1.6794,-1.6769,-1.6763,-1.6756,-1.6752,-1.6727,-1.6722,-1.6702,-1.6695,-1.6692,-1.67,-1.6676,-1.6679,-1.668,-1.6682,-1.6717,-1.6721,-1.6725,0,0,0,0,0,-1.6839,-1.6847,-1.6836,-1.6832,-1.6806,-1.6795,-1.6791,-1.6768,-1.6757,-1.6759,-1.6741,-1.6722,-1.6702,-1.6695,-1.6691,-1.6699,-1.6678,-1.668,-1.6682,-1.6715,-1.672,-1.6724,0,0,0,0,0,0,-1.6875,-1.6843,-1.6831,-1.683,-1.6816,-1.6788,-1.6791,-1.6774,-1.6762,-1.6759,-1.6731,-1.6725,-1.6724,-1.6711,-1.6704,-1.6705,-1.6687,-1.6688,-1.6714,-1.6719,-1.6723,-1.6726,-1.6675,0,0,0,0,0,-1.6883,-1.6876,-1.6849,-1.6851,-1.6845,-1.6819,-1.6813,-1.6797,-1.678,-1.6774,-1.6755,-1.6739,-1.6729,-1.6723,-1.6712,-1.6714,-1.6708,-1.6718,-1.6722,-1.6725,-1.6727,-1.6728,-1.6732,-1.6688,-1.6688,-1.6688,0,0,-1.6899,-1.6881,-1.6878,-1.6858,-1.6845,-1.6839,-1.6814,-1.6808,-1.6804,-1.6772,-1.6767,-1.6753,-1.6733,-1.6733,-1.6731,-1.6721,-1.6738,-1.6727,-1.673,-1.673,-1.673,-1.6734,-1.6738,-1.6689,-1.6688,-1.6688,0,0,-1.6925,-1.6911,-1.6912,-1.6899,-1.6879,-1.6862,-1.6863,-1.6838,-1.6828,-1.6822,-1.6799,-1.6792,-1.6775,-1.6762,-1.6754,-1.6776,-1.6759,-1.6773,-1.6794,-1.6796,-1.6799,-1.6802,-1.6811,-1.6815,-1.6775,-1.6775,-1.6775,0,-1.6948,-1.6938,-1.6914,-1.691,-1.6902,-1.6874,-1.6875,-1.6864,-1.6841,-1.6836,-1.6826,-1.6805,-1.6789,-1.6786,-1.6791,-1.6785,-1.6785,-1.6777,-1.6801,-1.6804,-1.6806,-1.6814,-1.6818,-1.6777,-1.6776,-1.6776,-1.6776,0,-1.6967,-1.6961,-1.6964,-1.6944,-1.6936,-1.6935,-1.691,-1.6905,-1.689,-1.6874,-1.6869,-1.6849,-1.6835,-1.6832,-1.6817,-1.6826,-1.6821,-1.6806,-1.6788,-1.6813,-1.682,-1.6823,-1.6779,-1.6779,-1.6778,-1.6778,0,0,-1.7015,-1.6982,-1.6984,-1.6975,-1.6951,-1.6946,-1.6943,-1.6929,-1.6926,-1.6911,-1.6909,-1.6895,-1.6882,-1.6872,-1.6855,-1.6856,-1.6876,-1.6841,-1.684,-1.6849,-1.6887,-1.6899,-1.6903,-1.6864,-1.6865,-1.6865,-1.6889,0,-1.7038,-1.7033,-1.7011,-1.7012,-1.7006,-1.698,-1.6978,-1.6963,-1.6948,-1.6941,-1.6924,-1.6915,-1.6897,-1.6891,-1.6891,-1.6874,-1.6883,-1.6871,-1.6862,-1.6862,-1.6869,-1.6907,-1.6919,-1.6943,-1.6891,-1.6892,-1.6892,0,-1.7065,-1.7053,-1.7054,-1.7031,-1.7028,-1.7027,-1.7013,-1.7006,-1.6989,-1.6978,-1.6967,-1.6948,-1.6944,-1.6927,-1.6921,-1.6913,-1.6908,-1.6898,-1.6899,-1.6898,-1.6879,-1.6908,-1.6949,-1.6953,-1.6896,-1.6896,-1.6895,0,-1.7101,-1.7085,-1.7084,-1.7077,-1.705,-1.705,-1.7039,-1.7021,-1.7014,-1.7002,-1.6997,-1.6984,-1.6977,-1.6967,-1.6945,-1.6935,-1.6942,-1.6923,-1.6933,-1.6934,-1.6937,-1.6937,-1.698,-1.6932,-1.6932,-1.6932,-1.6932,0,-1.713,-1.7132,-1.71,-1.7099,-1.7101,-1.7075,-1.7077,-1.7063,-1.7048,-1.7044,-1.7019,-1.7016,-1.6987,-1.698,-1.6963,-1.6961,-1.6957,-1.6949,-1.6944,-1.6952,-1.6953,-1.6948,-1.6947,-1.6933,-1.6932,-1.6932,-1.6932,0,-1.7171,-1.715,-1.7147,-1.7122,-1.7116,-1.7118,-1.7097,-1.7095,-1.7079,-1.7074,-1.7071,-1.7046,-1.7037,-1.7014,-1.6998,-1.6987,-1.699,-1.6981,-1.6996,-1.6994,-1.7006,-1.7006,-1.7048,-1.7052,-1.7001,-1.7002,-1.7002,0,-1.7192,-1.7193,-1.7168,-1.7164,-1.7154,-1.7148,-1.7141,-1.7117,-1.7111,-1.7091,-1.7092,-1.7081,-1.7071,-1.7058,-1.7038,-1.7026,-1.7018,-1.7033,-1.7016,-1.7023,-1.7019,-1.702,-1.702,-1.7037,-1.7038,-1.7039,-1.7039,0,-1.7231,-1.722,-1.7212,-1.72,-1.7193,-1.7183,-1.7171,-1.7169,-1.7141,-1.7135,-1.7126,-1.7119,-1.7103,-1.7093,-1.7079,-1.7066,-1.7049,-1.7045,-1.7047,-1.7055,-1.7064,-1.706,-1.7008,-1.7044,-1.7043,-1.7043,-1.7043,-1.7043,-1.7263,-1.7263,-1.7246,-1.7238,-1.7226,-1.7216,-1.7213,-1.7197,-1.7189,-1.7176,-1.7161,-1.7154,-1.7137,-1.7115,-1.7105,-1.7098,-1.7089,-1.7092,-1.7092,-1.7094,-1.7098,-1.7064,-1.7095,-1.7095,-1.7095,-1.7095,-1.7095,0,-1.7302,-1.729,-1.7282,-1.7267,-1.726,-1.7244,-1.723,-1.7226,-1.722,-1.7206,-1.7197,-1.7187,-1.7177,-1.7156,-1.7144,-1.7144,-1.7135,-1.7141,-1.7142,-1.7139,-1.7106,-1.7106,-1.7149,-1.7149,-1.7149,-1.7149,-1.7149,-1.7149,-1.7321,-1.732,-1.7308,-1.7302,-1.7289,-1.7283,-1.7276,-1.7266,-1.7255,-1.7245,-1.7237,-1.7224,-1.7207,-1.7194,-1.7185,-1.7179,-1.7176,-1.7185,-1.7177,-1.7147,-1.7142,-1.7137,-1.7137,-1.7185,-1.7185,-1.7211,-1.7211,-1.7211]},{"header":{"parameterUnit":"m.s-1","parameterCategory":1,"la1":30.2991,"la2":30.254,"lo1":-89.0895,"lo2":-89.0444,"dy":0.0017,"dx":0.0017,"nx":28,"ny":28,"refTime":"2024-08-09T09:00:00:Z","depth":0,"parameterNumber":3,"parameterNumberName":"V-component_of_WINDS"},"data":[0,0,0,0,0,0,0,0,0,0,0,0,0,0,0,0,0,0,0,0,0,0,0,0,0,0,0,0,0,0,0,0,0,0,0,0,0,0,0,0,0,0,0,0,0,0,0,0,0,0,0,0,0,0,0,0,0,0,-2.7469,-2.7469,0,-2.75,-2.7501,-2.7501,-2.7485,-2.7484,-2.7483,-2.7483,-2.7512,-2.7514,-2.7515,0,0,0,0,0,0,0,0,0,0,0,0,0,-2.7392,-2.7393,-2.7469,-2.7469,-2.747,-2.75,-2.7501,-2.7501,-2.7485,-2.7484,-2.7483,-2.7482,-2.7512,-2.7513,-2.7515,0,0,0,0,0,0,0,0,0,0,0,0,0,-2.7424,-2.7394,-2.7469,-2.7465,-2.7465,-2.75,-2.7501,-2.7501,-2.7485,-2.7484,-2.7483,-2.7482,-2.7511,-2.7513,-2.7516,-2.7555,0,0,-2.7523,-2.7524,0,0,0,0,0,0,0,0,-2.7423,-2.7427,-2.7465,-2.7466,-2.7466,-2.7488,-2.7484,-2.7519,-2.7486,-2.7478,-2.7483,-2.7481,-2.7505,-2.7508,-2.7516,-2.7556,-2.7557,-2.7523,-2.7524,-2.7525,-2.7526,0,0,0,0,0,0,0,-2.742,-2.7426,-2.7481,-2.7466,-2.7466,-2.7461,-2.7465,-2.7491,-2.7498,-2.7478,-2.7477,-2.7481,-2.7505,-2.7514,-2.7517,-2.7558,-2.7523,-2.7525,-2.7526,-2.7527,-2.7632,-2.7633,0,0,0,0,0,0,-2.7419,-2.7424,-2.748,-2.7482,-2.7441,-2.7464,-2.7467,-2.7482,-2.7497,-2.7499,-2.7482,-2.7481,-2.7511,-2.7514,-2.7518,-2.7565,-2.7525,-2.7527,-2.7529,-2.763,-2.7632,-2.7633,0,0,0,0,0,0,-2.7417,-2.7424,-2.7479,-2.7453,-2.7459,-2.7466,-2.7483,-2.7483,-2.7492,-2.7501,-2.7501,-2.7491,-2.751,-2.7514,-2.7546,-2.7566,-2.7528,-2.7531,-2.7629,-2.7631,-2.7633,-2.766,0,0,0,0,0,0,-2.7415,-2.7423,-2.7439,-2.7453,-2.7461,-2.7507,-2.7484,-2.7485,-2.7497,-2.7495,-2.7509,-2.751,-2.7509,-2.7542,-2.7548,-2.7568,-2.7532,-2.7627,-2.7629,-2.7632,-2.7657,-2.7662,-2.7667,0,0,0,0,0,-2.7412,-2.7444,-2.744,-2.7447,-2.7481,-2.7509,-2.7513,-2.7512,-2.7498,-2.7514,-2.7519,-2.7509,-2.7562,-2.7546,-2.7552,-2.7573,-2.7626,-2.7629,-2.7632,-2.7655,-2.7661,-2.7667,0,0,0,0,0,0,-2.7431,-2.7446,-2.7441,-2.7479,-2.7493,-2.7506,-2.7525,-2.7519,-2.7536,-2.7533,-2.7531,-2.7534,-2.7567,-2.7573,-2.7554,-2.7612,-2.7592,-2.7596,-2.7607,-2.7613,-2.7618,-2.7617,-2.7534,0,0,0,0,0,-2.744,-2.7462,-2.7474,-2.7506,-2.7513,-2.7518,-2.753,-2.7529,-2.7542,-2.7548,-2.7555,-2.7568,-2.7588,-2.7601,-2.7619,-2.7657,-2.766,-2.7675,-2.768,-2.7684,-2.7688,-2.7709,-2.7716,-2.7643,-2.7643,-2.7643,0,0,-2.7457,-2.7469,-2.7483,-2.751,-2.7521,-2.7543,-2.7523,-2.7548,-2.7564,-2.7551,-2.7582,-2.7588,-2.7602,-2.7637,-2.7653,-2.7643,-2.7709,-2.7688,-2.7691,-2.7693,-2.7713,-2.772,-2.7726,-2.7646,-2.7645,-2.7645,0,0,-2.7502,-2.7513,-2.7541,-2.7552,-2.7569,-2.7572,-2.7579,-2.7593,-2.7597,-2.7628,-2.7619,-2.7638,-2.7671,-2.7682,-2.7692,-2.7741,-2.7733,-2.7747,-2.7773,-2.7794,-2.78,-2.7805,-2.7823,-2.7829,-2.7751,-2.7751,-2.7751,0,-2.7522,-2.7557,-2.7556,-2.7582,-2.7595,-2.7585,-2.7614,-2.7624,-2.7645,-2.7653,-2.7642,-2.7685,-2.7694,-2.7732,-2.7744,-2.7752,-2.7759,-2.7746,-2.7799,-2.7804,-2.7809,-2.7826,-2.7833,-2.7753,-2.7752,-2.7752,-2.7752,0,-2.7581,-2.7605,-2.7626,-2.7648,-2.7663,-2.769,-2.7693,-2.7707,-2.7705,-2.7709,-2.774,-2.775,-2.7771,-2.778,-2.7777,-2.7818,-2.7811,-2.7799,-2.7779,-2.7818,-2.7834,-2.784,-2.7755,-2.7754,-2.7754,-2.7753,0,0,-2.7638,-2.7661,-2.7668,-2.7679,-2.7696,-2.7715,-2.7741,-2.7762,-2.7775,-2.779,-2.7812,-2.7841,-2.7831,-2.7842,-2.784,-2.7858,-2.7897,-2.7844,-2.7844,-2.7854,-2.7943,-2.7952,-2.796,-2.7891,-2.7892,-2.7893,-2.7942,0,-2.7685,-2.7733,-2.7733,-2.7777,-2.7799,-2.779,-2.7813,-2.7826,-2.783,-2.7849,-2.7853,-2.7875,-2.7859,-2.7866,-2.7883,-2.7888,-2.7915,-2.7885,-2.7912,-2.7913,-2.7909,-2.7969,-2.7978,-2.8024,-2.7949,-2.795,-2.795,0,-2.7745,-2.7764,-2.781,-2.7825,-2.7835,-2.7856,-2.7876,-2.7894,-2.7908,-2.791,-2.7923,-2.7918,-2.7944,-2.7923,-2.7959,-2.7939,-2.7949,-2.7953,-2.7955,-2.7958,-2.7934,-2.7974,-2.8038,-2.8046,-2.796,-2.7959,-2.7959,0,-2.7784,-2.782,-2.7853,-2.7861,-2.788,-2.7895,-2.7903,-2.7916,-2.7929,-2.7946,-2.7954,-2.7973,-2.7984,-2.7999,-2.7999,-2.7983,-2.8036,-2.8014,-2.8038,-2.8038,-2.805,-2.8049,-2.8118,-2.8055,-2.8055,-2.8055,-2.8055,0,-2.7836,-2.7865,-2.787,-2.789,-2.7922,-2.7922,-2.7953,-2.796,-2.7972,-2.7992,-2.7985,-2.8004,-2.8003,-2.8023,-2.8023,-2.8053,-2.8057,-2.806,-2.8059,-2.8061,-2.8061,-2.8068,-2.8066,-2.8057,-2.8057,-2.8056,-2.8056,0,-2.7885,-2.7889,-2.7925,-2.7939,-2.7944,-2.7967,-2.7979,-2.7997,-2.8001,-2.8028,-2.8034,-2.8039,-2.8062,-2.8064,-2.8089,-2.8089,-2.8126,-2.8122,-2.8122,-2.8122,-2.8146,-2.8144,-2.8222,-2.8233,-2.8163,-2.8163,-2.8164,0,-2.7918,-2.7941,-2.7958,-2.7972,-2.7982,-2.8004,-2.8018,-2.8018,-2.8032,-2.805,-2.8067,-2.8089,-2.8107,-2.8143,-2.8149,-2.8169,-2.8165,-2.8191,-2.8168,-2.8169,-2.8167,-2.8166,-2.8168,-2.8196,-2.8197,-2.8198,-2.8198,0,-2.7978,-2.7979,-2.8,-2.8022,-2.8039,-2.8055,-2.8071,-2.8082,-2.8084,-2.8101,-2.8124,-2.8138,-2.8165,-2.8187,-2.8206,-2.8213,-2.8206,-2.8205,-2.8212,-2.8214,-2.8214,-2.8215,-2.8135,-2.8204,-2.8203,-2.8203,-2.8202,-2.8202,-2.802,-2.804,-2.8056,-2.8079,-2.8091,-2.8106,-2.8125,-2.8132,-2.8152,-2.8175,-2.8173,-2.8199,-2.8213,-2.8238,-2.8247,-2.8267,-2.8258,-2.8268,-2.827,-2.8273,-2.8276,-2.821,-2.827,-2.827,-2.827,-2.827,-2.827,0,-2.808,-2.809,-2.8112,-2.8135,-2.8153,-2.8145,-2.8162,-2.8178,-2.8201,-2.8215,-2.8233,-2.826,-2.8282,-2.829,-2.831,-2.8325,-2.8322,-2.833,-2.8329,-2.8331,-2.8282,-2.8275,-2.8332,-2.8332,-2.8332,-2.8332,-2.8332,-2.8332,-2.8114,-2.8147,-2.815,-2.8189,-2.8198,-2.8225,-2.8236,-2.8249,-2.826,-2.8292,-2.831,-2.8315,-2.8326,-2.8348,-2.8367,-2.8369,-2.8377,-2.8387,-2.8387,-2.8341,-2.8335,-2.8329,-2.8322,-2.8388,-2.8388,-2.8435,-2.8435,-2.8436]}]]